Volver al catálogo

STARLINK-37012

ActivoComunicacionesSSO
NORAD 68221·PAYLOAD·🇺🇸 United States

Lanzado Mar 17, 2026 desde Vandenberg Space Force Base

Loading…

Próximos Pases (próximas 24 horas)

TLE

ActualizadoSource: CelesTrak SupGP

Época: Sep 15, 2026, 03:41 UTC

1 68221C 26053Q   26258.15395833  .00018673  00000+0  57943-3 0  2588
2 68221  97.2847 132.0106 0001822  96.0706 288.9795 15.33441140    17

Sigue STARLINK-37012 en tiempo real con AllMySat

Download on the App Store